Wind_Speed
45 45 47 48 49 49 50 50 49 48 45 46 47 44 44 43 41 43 57 55 51 46 46 46 43 41 37 34 32 28 23 17 13 8 11 10 5 8 16 14 12 20 16 27 27
42 42 44 47 48 50 50 50 51 51 50 47 47 48 47 47 45 45 54 59 56 51 47 50 46 45 41 39 36 32 25 20 16 13 15 11 10 9 8 7 11 16 14 21 27
44 42 44 45 46 47 48 50 52 54 53 53 50 49 50 52 49 48 49 61 61 56 52 51 51 48 46 43 39 35 30 26 22 18 21 18 18 14 9 8 16 11 10 19 28
44 44 44 44 44 45 44 47 49 53 56 56 56 53 52 54 53 51 51 56 65 62 57 53 55 50 48 45 43 37 34 28 26 20 22 19 17 10 9 13 16 12 21 26 22
41 46 47 46 45 44 43 45 48 50 53 59 60 60 56 56 57 56 55 55 63 67 62 58 56 54 51 48 46 41 37 33 29 21 22 23 18 15 13 20 15 16 21 15 26
44 46 46 46 45 44 44 45 46 46 51 56 64 65 63 59 59 58 59 58 59 68 68 63 60 56 56 53 50 46 41 36 31 25 23 18 19 18 21 22 15 17 19 18 24
46 47 48 53 51 48 46 46 50 50 48 51 61 68 68 65 63 62 62 60 59 62 72 68 65 62 59 58 54 50 46 40 34 28 25 17 28 20 24 28 26 23 23 21 21
48 46 47 50 49 48 47 47 47 49 51 49 56 68 71 71 66 64 64 65 63 61 68 74 71 67 63 61 58 53 49 45 38 32 25 20 24 32 27 27 26 23 22 21 21
44 47 47 51 51 50 50 50 48 49 50 49 51 61 71 75 72 67 66 68 67 64 62 72 75 72 68 65 60 55 50 48 42 37 28 26 21 26 28 27 25 28 25 24 21
38 45 49 52 52 53 50 50 48 47 46 47 45 57 68 78 76 72 69 70 71 69 67 67 75 74 72 67 63 58 52 50 45 40 34 30 32 33 29 32 27 28 27 29 27
31 32 41 46 47 48 49 46 42 45 45 47 41 47 66 75 81 78 74 72 73 72 70 67 71 75 76 74 68 61 56 53 49 43 38 35 38 28 36 32 36 33 30 28 29
30 26 29 33 39 42 44 44 43 47 48 49 44 41 55 75 84 83 79 76 75 75 73 69 67 71 75 75 69 67 61 55 53 47 40 40 38 32 33 39 40 36 33 29 23
30 25 24 26 29 32 35 38 44 48 49 50 50 46 46 67 85 88 84 80 78 77 76 75 72 69 70 76 76 72 69 63 60 55 50 46 43 46 42 38 38 36 32 27 25
30 25 23 21 24 27 35 41 46 50 56 54 52 48 46 54 83 92 90 84 81 79 79 78 74 70 68 72 79 77 74 69 63 61 57 52 48 47 46 49 44 38 36 30 23
44 25 23 23 26 29 31 35 43 52 59 54 60 53 55 62 74 95 95 90 84 81 80 78 76 75 73 69 76 82 76 73 73 69 62 57 54 51 47 45 43 40 37 34 28
49 25 23 24 24 28 34 43 51 60 58 62 57 60 58 62 68 91 98 94 90 86 84 84 81 79 78 74 71 77 76 76 75 72 69 64 60 56 52 50 47 44 39 39 36
58 32 24 25 29 31 41 49 53 48 44 42 45 48 57 63 70 85 100 99 93 88 86 83 82 81 77 74 72 67 76 79 79 75 73 71 69 64 61 54 49 49 45 42 42
61 38 23 26 29 37 44 48 38 33 29 35 40 47 53 60 71 83 99 103 99 94 93 86 86 84 82 80 78 73 71 74 75 77 77 79 75 70 65 58 56 53 52 50 46
56 43 28 29 31 41 48 38 33 26 25 31 37 46 56 62 71 80 95 106 104 101 97 90 91 86 84 81 78 78 73 74 78 79 82 82 73 68 68 65 62 59 58 55 52
59 44 31 32 34 42 50 36 27 20 22 29 37 45 52 63 73 81 94 103 104 104 100 99 92 88 89 86 85 83 82 79 74 76 77 82 79 81 73 73 69 65 63 60 56
59 45 34 35 37 44 51 38 27 16 19 28 36 45 54 60 70 81 90 101 108 108 105 98 93 92 89 88 88 86 86 82 79 79 77 76 74 68 72 72 72 70 68 63 59
58 46 36 38 43 45 51 38 26 19 16 26 35 44 52 57 66 75 85 96 105 110 109 104 100 97 99 91 89 87 86 87 86 83 79 80 77 74 76 75 74 72 67 64 61
51 44 37 39 48 48 52 42 25 19 12 24 31 40 47 57 62 68 77 87 101 109 110 108 106 102 95 94 93 91 90 89 87 89 85 84 75 74 73 74 73 71 70 67 61
51 42 36 43 48 49 54 48 27 17 12 19 28 35 41 54 59 65 74 79 91 103 109 110 110 103 109 106 101 96 90 91 88 88 86 90 84 78 77 75 72 71 70 70 68
48 38 34 41 47 49 54 52 33 19 10 9 23 31 39 48 58 63 70 77 83 94 104 109 111 111 108 103 100 96 95 92 92 90 93 98 86 81 81 79 77 76 73 70 66
46 34 34 40 45 47 52 48 34 27 15 5 13 24 33 45 53 60 68 75 77 79 96 105 110 111 110 108 106 103 101 98 97 97 98 87 82 81 82 84 84 83 79 75 72
41 29 33 41 43 47 51 47 31 26 22 13 8 17 25 36 48 57 64 69 75 81 81 89 107 111 111 114 111 108 106 105 104 103 104 94 90 90 90 90 89 86 84 82 79
Wind_Direction
265 263 263 261 259 257 254 251 249 246 240 236 234 229 227 223 220 219 217 219 218 217 216 209 207 210 210 211 210 211 214 211 221 200 187 195 202 206 239 286 286 352 22 6 17
271 268 265 263 259 257 253 248 246 242 241 238 234 230 227 222 219 221 217 218 220 218 217 212 208 209 214 214 215 215 219 220 223 209 183 203 182 185 247 283 289 283 23 345 13
276 274 269 265 263 260 256 249 244 240 238 236 233 231 226 221 217 219 220 217 219 219 217 216 212 210 215 214 215 218 220 222 225 215 199 210 195 212 251 266 273 306 350 339 334
271 272 268 266 267 266 260 255 247 241 234 233 231 228 226 221 218 219 219 219 218 220 219 216 216 214 214 215 217 219 224 228 230 226 215 203 195 210 232 241 253 269 318 320 325
263 263 261 261 264 267 265 260 254 245 234 231 229 226 222 221 221 218 219 220 217 218 220 217 216 215 215 219 221 222 226 232 232 228 210 201 202 207 197 220 249 262 289 297 325
270 264 255 257 259 260 261 262 258 250 243 230 228 225 221 220 222 219 217 218 218 217 219 219 215 218 220 222 224 226 229 230 232 224 223 222 185 192 182 214 245 267 267 287 312
263 264 261 258 258 257 258 255 257 256 248 238 228 224 220 219 220 220 216 217 218 217 217 219 218 219 220 224 226 227 230 231 232 225 224 203 177 187 203 219 235 243 263 284 296
261 256 256 254 256 252 254 253 252 254 249 246 228 226 220 217 218 218 216 216 217 218 217 219 219 219 221 223 225 227 228 230 230 226 221 202 206 201 216 232 247 254 261 271 278
269 255 252 252 251 248 249 250 249 249 251 246 232 225 220 216 215 216 217 214 216 217 217 218 219 220 220 223 224 226 228 229 230 224 221 199 191 205 220 238 244 247 246 259 270
273 266 261 256 252 245 249 248 248 249 251 249 237 224 222 216 214 214 215 215 215 217 217 217 218 219 220 222 225 225 225 226 229 224 224 211 193 208 221 223 226 239 244 257 267
299 283 271 266 255 252 250 247 246 245 248 251 242 231 219 216 214 214 213 215 214 216 217 218 218 219 219 219 221 223 225 224 225 225 226 219 203 200 211 214 222 239 249 254 259
324 301 281 269 260 258 254 254 246 245 250 251 246 236 223 215 213 214 212 213 213 214 216 217 218 218 220 221 222 222 223 225 226 228 224 222 209 199 211 224 232 241 244 251 261
328 313 288 273 265 260 254 248 246 244 255 254 253 245 227 220 213 213 212 212 212 213 215 216 217 217 219 219 220 222 224 223 225 227 227 226 222 214 209 219 226 232 236 246 243
327 308 293 276 261 251 246 252 251 252 255 256 257 254 242 223 215 212 212 211 212 212 214 215 216 217 219 219 219 220 222 224 226 227 225 227 225 225 220 221 229 235 240 244 235
353 311 290 278 269 262 260 266 267 264 261 257 253 251 241 223 215 211 211 211 210 212 213 215 216 217 217 219 219 219 220 222 223 225 229 229 231 229 227 226 230 232 236 241 235
349 318 296 286 276 278 278 280 279 272 267 260 254 248 235 219 214 212 210 211 210 210 211 212 214 216 217 218 220 219 219 222 225 227 227 227 227 228 229 231 231 235 238 238 240
352 327 301 299 285 289 294 299 290 277 264 254 243 231 222 213 211 211 209 209 211 210 213 211 214 216 218 219 221 220 220 221 224 226 227 228 229 229 232 236 235 237 237 239 242
350 335 313 303 310 311 310 312 297 283 263 241 230 217 214 207 208 210 209 208 209 211 211 210 213 214 215 217 217 218 222 222 223 225 227 227 229 231 234 231 233 235 238 239 242
347 337 320 315 322 328 327 323 306 282 250 232 222 215 207 204 205 207 208 208 208 211 211 210 213 213 215 217 218 220 222 223 222 223 227 229 229 230 234 236 236 235 237 239 242
346 339 326 326 336 338 340 335 313 283 243 224 218 213 208 204 205 205 207 208 209 211 212 212 210 213 215 216 216 217 219 222 224 227 229 229 231 232 233 234 235 236 239 241 243
344 335 331 334 344 347 346 339 327 299 243 222 213 210 206 205 206 207 204 207 208 211 213 213 211 213 215 217 218 218 219 221 224 225 227 228 229 230 233 236 238 239 239 240 241
340 335 331 338 346 346 350 346 337 320 245 222 212 211 207 205 209 209 208 207 209 211 212 212 212 214 215 214 217 219 222 222 222 225 230 232 227 227 231 232 235 238 240 242 243
333 330 332 343 343 345 351 352 345 331 265 224 215 212 211 208 209 209 210 210 209 212 213 213 214 214 216 217 217 219 220 220 222 227 228 231 225 230 234 234 234 236 239 242 243
330 329 336 341 337 344 350 355 353 343 321 227 218 214 212 211 210 212 211 212 213 214 214 214 216 214 218 215 216 217 219 222 224 227 227 230 229 231 231 232 233 234 235 238 240
330 329 339 333 336 343 349 352 356 356 334 258 223 215 215 215 214 211 213 216 214 215 217 217 217 217 219 219 221 221 221 223 224 225 228 230 229 230 232 233 236 236 234 234 234
329 329 333 331 336 344 348 350 350 353 355 291 242 225 219 217 217 219 215 215 216 219 219 218 220 221 219 221 222 221 222 224 226 227 230 230 230 231 234 236 236 235 235 236 235
328 330 332 326 334 344 345 347 346 346 350 337 249 234 229 223 221 219 220 220 217 219 219 221 222 222 222 222 223 224 224 224 225 227 230 227 228 231 230 233 233 235 237 237 236
Height
10876 10876 10877 10879 10881 10885 10889 10893 10897 10902 10908 10914 10918 10923 10927 10932 10937 10940 10945 10950 10958 10965 10971 10976 10982 10987 10990 10994 10998 11002 11006 11008 11011 11012 11012 11014 11015 11018 11016 11015 11014 11007 11010 11006 11006
10865 10865 10865 10865 10867 10869 10874 10879 10883 10888 10894 10900 10906 10912 10917 10922 10928 10933 10937 10943 10950 10958 10964 10971 10976 10982 10986 10989 10994 10998 11002 11005 11008 11010 11012 11013 11015 11016 11017 11017 11015 11011 11009 11007 11008
10855 10854 10854 10855 10855 10856 10859 10863 10868 10874 10880 10886 10893 10899 10906 10912 10919 10923 10929 10934 10941 10949 10957 10963 10969 10976 10980 10984 10989 10993 10997 11001 11005 11008 11010 11011 11014 11016 11016 11016 11013 11011 11008 11009 11010
10843 10841 10841 10842 10843 10843 10846 10849 10852 10857 10864 10870 10877 10885 10893 10901 10908 10913 10920 10925 10932 10940 10949 10956 10963 10970 10975 10980 10984 10989 10992 10997 11001 11005 11007 11010 11013 11015 11016 11016 11015 11011 11009 11011 11012
10831 10829 10829 10828 10829 10830 10833 10834 10838 10842 10847 10855 10861 10870 10879 10888 10896 10903 10911 10917 10922 10931 10940 10948 10955 10963 10968 10973 10977 10983 10988 10992 10997 11003 11004 11007 11011 11013 11015 11015 11013 11011 11012 11013 11013
10821 10818 10815 10815 10816 10817 10819 10821 10823 10827 10833 10839 10845 10853 10864 10875 10882 10891 10898 10907 10914 10921 10930 10938 10946 10955 10960 10965 10971 10977 10982 10988 10993 10999 11002 11006 11009 11011 11014 11014 11011 11012 11013 11015 11014
10805 10804 10801 10801 10802 10803 10805 10806 10809 10812 10816 10823 10829 10837 10848 10858 10867 10877 10886 10895 10904 10910 10919 10928 10936 10944 10952 10957 10963 10971 10977 10983 10988 10995 10999 11004 11007 11010 11011 11012 11012 11012 11014 11015 11015
10789 10787 10786 10785 10787 10789 10791 10792 10795 10797 10801 10807 10814 10820 10832 10841 10853 10864 10874 10882 10891 10899 10907 10916 10925 10935 10942 10949 10955 10964 10972 10978 10984 10990 10996 11001 11004 11008 11008 11009 11010 11013 11013 11014 11014
10773 10772 10770 10770 10771 10774 10776 10778 10781 10783 10786 10792 10799 10804 10815 10825 10837 10848 10859 10869 10879 10887 10895 10903 10914 10923 10932 10938 10949 10958 10966 10972 10979 10985 10991 10998 11002 11005 11004 11006 11008 11010 11011 11012 11014
10758 10757 10757 10756 10757 10760 10762 10765 10768 10772 10773 10778 10784 10789 10798 10809 10821 10832 10844 10854 10864 10874 10883 10892 10902 10911 10921 10934 10941 10949 10959 10966 10973 10980 10986 10991 10996 10999 11003 11003 11004 11007 11009 11011 11013
10747 10743 10743 10745 10746 10748 10751 10753 10756 10759 10761 10764 10770 10775 10780 10793 10802 10815 10827 10840 10851 10862 10871 10881 10891 10899 10907 10916 10932 10943 10951 10957 10966 10972 10979 10985 10990 10994 11000 11001 10999 11003 11006 11009 11011
10738 10734 10733 10733 10735 10738 10740 10743 10744 10746 10747 10751 10756 10762 10767 10775 10786 10799 10812 10824 10836 10845 10857 10869 10878 10886 10896 10910 10925 10932 10940 10950 10957 10964 10970 10976 10985 10989 10994 10995 10997 11000 11004 11006 11008
10734 10728 10726 10725 10727 10727 10730 10731 10731 10732 10733 10736 10740 10745 10751 10758 10769 10781 10795 10807 10819 10832 10844 10853 10862 10875 10885 10898 10907 10921 10929 10938 10945 10953 10960 10969 10976 10982 10986 10988 10991 10995 10998 11002 11005
10731 10725 10721 10719 10719 10718 10718 10718 10718 10718 10716 10722 10724 10729 10733 10740 10748 10763 10777 10791 10804 10817 10828 10839 10853 10866 10874 10883 10895 10906 10914 10925 10938 10942 10947 10958 10968 10973 10979 10982 10986 10990 10994 10998 11001
10727 10720 10715 10712 10711 10710 10708 10705 10703 10698 10693 10705 10701 10709 10711 10716 10732 10741 10759 10774 10789 10802 10817 10829 10842 10851 10862 10871 10880 10890 10907 10912 10915 10926 10941 10950 10958 10965 10969 10974 10977 10984 10988 10991 10995
10722 10713 10708 10705 10702 10699 10695 10690 10683 10675 10672 10670 10675 10676 10686 10696 10710 10722 10743 10759 10772 10785 10798 10810 10824 10836 10845 10857 10867 10884 10896 10898 10906 10917 10926 10936 10945 10953 10960 10965 10970 10976 10981 10985 10989
10713 10705 10699 10695 10691 10687 10680 10670 10655 10647 10643 10646 10648 10655 10662 10677 10688 10702 10722 10740 10758 10773 10783 10800 10811 10823 10838 10852 10858 10874 10874 10884 10892 10906 10914 10922 10929 10939 10946 10959 10965 10968 10973 10978 10981
10705 10695 10689 10685 10680 10673 10662 10645 10632 10624 10626 10626 10629 10635 10647 10663 10673 10685 10704 10721 10740 10754 10762 10783 10793 10809 10821 10832 10844 10855 10863 10873 10883 10891 10896 10901 10913 10927 10939 10948 10954 10959 10962 10967 10974
10695 10686 10679 10672 10667 10658 10646 10629 10616 10612 10612 10614 10618 10625 10632 10648 10660 10671 10686 10702 10718 10733 10746 10767 10775 10796 10808 10821 10835 10841 10854 10857 10861 10873 10873 10890 10910 10916 10927 10936 10943 10948 10951 10958 10964
10686 10675 10668 10662 10655 10646 10633 10616 10607 10602 10601 10604 10607 10614 10624 10632 10644 10654 10668 10692 10709 10720 10734 10743 10766 10780 10789 10802 10813 10824 10832 10840 10855 10860 10868 10880 10892 10897 10915 10920 10928 10935 10941 10947 10955
10678 10666 10658 10652 10644 10635 10624 10608 10597 10593 10593 10595 10599 10603 10609 10621 10630 10639 10654 10674 10688 10701 10716 10739 10755 10762 10777 10789 10796 10811 10819 10832 10840 10843 10851 10867 10873 10897 10895 10904 10913 10920 10927 10935 10944
10669 10658 10649 10641 10633 10625 10614 10600 10590 10585 10585 10587 10590 10594 10600 10612 10618 10630 10643 10659 10672 10685 10699 10718 10735 10746 10747 10775 10787 10798 10807 10816 10824 10832 10842 10847 10865 10877 10876 10888 10897 10906 10913 10922 10932
10661 10651 10642 10634 10626 10617 10606 10595 10585 10578 10577 10580 10583 10588 10595 10601 10610 10623 10633 10646 10657 10669 10685 10702 10714 10731 10750 10759 10768 10779 10790 10798 10809 10816 10828 10832 10855 10858 10866 10878 10885 10893 10901 10909 10918
10655 10646 10637 10629 10621 10611 10601 10591 10582 10575 10571 10573 10576 10581 10588 10594 10603 10612 10620 10633 10645 10657 10670 10685 10695 10719 10709 10723 10742 10759 10779 10786 10797 10805 10816 10813 10832 10847 10853 10860 10870 10878 10886 10895 10905
10647 10640 10633 10626 10617 10607 10597 10586 10580 10575 10569 10567 10571 10574 10579 10586 10593 10602 10612 10621 10631 10643 10656 10670 10682 10693 10709 10727 10739 10756 10764 10773 10780 10791 10790 10782 10820 10834 10839 10847 10854 10862 10871 10882 10892
10642 10634 10628 10621 10613 10604 10595 10586 10578 10572 10569 10566 10566 10569 10573 10578 10586 10594 10599 10608 10618 10632 10643 10651 10665 10678 10697 10707 10719 10731 10741 10754 10761 10767 10768 10798 10814 10821 10825 10830 10837 10844 10854 10866 10877
10635 10629 10622 10615 10608 10600 10592 10583 10577 10572 10567 10564 10563 10563 10566 10569 10576 10582 10589 10599 10608 10611 10625 10636 10647 10660 10674 10682 10698 10712 10721 10730 10739 10745 10745 10779 10790 10791 10800 10805 10814 10825 10836 10847 10858